Location: Taukkyan
(23.1052°N, 94.0030°E)
Time: 11:27:30
(UTC+00:00)

Cosmos 1900 - Pass Details

Date: 06 July 2020
Orbit: 681 x 740 km, 66.1° (Epoch: 14 August)

Event Time Altitude Azimuth Distance (km) Brightness Sun altitude
Exits shadow 21:08:08 64° 188° (S) 757 4.2 -23.4°
Maximum altitude 21:08:51 83° 113° (ESE) 695 4.2 -23.3°
Drops below altitude 10° 21:13:44 10° 25° (NNE) 2,148 7.7 -22.4°
Sets 21:16:05 0° 25° (NNE) 3,076 8.7 -22.0°
